Zurück zum Katalog

CZ-6A DEB

AktivSSO
NORAD 54422·DEBRIS·🇨🇳 China

Gestartet Nov 11, 2022 von Taiyuan Satellite Launch Center

Loading…

Nächste Überflüge (nächste 24 Stunden)

TLE

AktuellSource: Space-Track

Epoche: Sep 14, 2026, 11:46 UTC

1 54422U 22151EW  26257.49096887  .00000389  00000-0  21077-3 0  9991
2 54422  98.8064 272.2389 0038345  99.2956 261.2558 14.17802307198280

Verfolge CZ-6A DEB in Echtzeit mit AllMySat

Download on the App Store